#timestamp,LO_Frequency,Hit 
1500681615.3,286047017.3,N
1500681635.2,286047016.4,N
1500681655.0,286047015.7,N
1500681655.9,286047015.7,N
1500681675.7,286047016.4,N
1500681695.6,286047016.9,N
1500681715.4,286047014.1,N
1500681735.3,286047016.7,N
1500681755.1,286047016.5,N
1500681775.8,286047015.7,N
1500681795.7,286047016.5,N
1500681815.5,286047016.2,N
1500681835.4,286047016.4,N
1500681855.2,286047017.2,N
1500681875.0,286047015.9,N
1500681875.9,286047015.9,N
1500681895.8,286047016.1,N
1500681915.6,286047016.0,N
1500681935.4,286047017.1,N
1500681955.3,286047018.8,N
1500681975.1,286047019.8,N
1500681995.9,286047019.9,N
1500682015.7,286047017.8,N
1500682035.5,286047017.9,N
1500682055.4,286047018.0,N
1500682075.2,286047018.4,N
1500682095.1,286047018.8,N
1500682096.0,286047018.8,N
1500682115.8,286047018.7,N
1500682135.6,286047016.0,N
1500682155.5,286047018.1,N
1500682175.3,286047017.8,N
1500682195.1,286047017.9,N
1500682215.9,286047017.5,N
1500682235.7,286047017.8,N
1500682255.6,286047020.0,N
1500682275.4,286047017.7,N
1500682295.2,286047018.7,N
1500682315.1,286047018.1,N
1500682316.0,286047018.1,N
1500682335.8,286047017.7,N
1500682355.7,286047019.1,N
1500682375.5,286047020.3,N
1500682395.3,286047020.2,N
1500682415.2,286047020.0,N
1500682435.0,286047017.6,N
1500682435.9,286047017.6,N
1500682455.7,286047018.1,N
1500682475.6,286047017.6,N
1500682495.4,286047020.2,N
1500682515.3,286047017.7,N
1500682535.1,286047017.6,N
1500682536.0,286047017.6,N
1500682555.8,286047017.3,N
1500682575.7,286047019.6,N
1500682595.5,286047019.7,N
1500682615.3,286047017.4,N
1500682635.2,286047020.0,N
1500682655.0,286047017.6,N
1500682655.9,286047017.6,N
1500682675.8,286047015.9,N
1500682695.6,286047020.2,N
1500682715.4,286047017.8,N
1500682735.3,286047020.0,N
1500682755.1,286047020.1,N
1500682775.9,286047020.1,N
1500682795.7,286047019.3,N
1500682815.6,286047020.4,N
1500682835.4,286047020.2,N
1500682855.2,286047017.4,N
1500682875.1,286047018.1,N
1500682876.0,286047018.1,N
1500682895.8,286047017.5,N
1500682915.6,286047017.4,N
1500682935.5,286047020.2,N
1500682955.3,286047017.7,N
1500682975.2,286047019.4,N
1500682995.9,286047020.1,N
1500683015.7,286047020.4,N
1500683035.6,286047019.1,N
1500683055.4,286047019.0,N
1500683075.3,286047018.9,N
1500683095.1,286047019.0,N
1500683096.0,286047019.0,N
1500683115.8,286047019.8,N
1500683135.7,286047020.1,N
1500683155.5,286047019.3,N
1500683175.3,286047021.7,N
1500683195.2,286047021.6,N
1500683215.0,286047023.1,N
1500683215.9,286047023.1,N
1500683235.8,286047019.3,N
1500683255.6,286047021.8,N
1500683275.4,286047022.0,N
1500683295.3,286047019.8,N
1500683315.1,286047019.9,N
1500683335.9,286047019.8,N
1500683355.7,286047019.1,N
1500683375.5,286047021.9,N
1500683395.4,286047021.5,N
1500683415.2,286047021.4,N
1500683435.0,286047023.2,N
1500683435.9,286047023.2,N
1500683455.8,286047023.6,N
1500683475.6,286047021.8,N
1500683495.5,286047020.5,N
1500683515.3,286047022.9,N
1500683535.1,286047020.6,N
1500683555.9,286047018.9,N
1500683575.7,286047020.9,N
1500683595.5,286047021.3,N
1500683615.4,286047022.0,N
1500683635.2,286047021.9,N
1500683655.1,286047021.4,N
1500683656.0,286047021.4,N
1500683675.8,286047020.8,N
1500683695.6,286047021.1,N
1500683715.5,286047021.7,N
1500683735.3,286047021.8,N
1500683755.2,286047021.2,N
1500683775.9,286047020.7,N
1500683795.7,286047023.4,N
1500683815.6,286047020.6,N
1500683835.4,286047022.9,N
1500683855.2,286047020.6,N
1500683875.1,286047023.1,N
1500683876.0,286047023.1,N
1500683895.8,286047020.6,N
1500683915.7,286047020.5,N
1500683935.5,286047020.6,N
1500683955.3,286047023.2,N
1500683975.2,286047021.1,N
1500683995.0,286047021.7,N
1500683995.9,286047021.7,N
1500684015.8,286047021.4,N
1500684035.6,286047020.8,N
1500684055.4,286047021.1,N
1500684075.3,286047021.0,N
1500684095.1,286047020.7,N
1500684115.8,286047021.1,N
1500684135.7,286047023.5,N
1500684155.5,286047025.2,N
1500684175.4,286047022.1,N
1500684195.2,286047023.2,N
1500684215.0,286047022.7,N
1500684215.9,286047022.7,N
1500684235.8,286047025.1,N
1500684255.6,286047024.7,N
1500684275.5,286047022.2,N
1500684295.3,286047022.2,N
1500684315.1,286047022.5,N
1500684335.9,286047024.4,N
1500684355.7,286047023.8,N
1500684375.5,286047024.6,N
1500684395.4,286047024.9,N
1500684415.2,286047022.3,N
1500684435.1,286047022.6,N
1500684436.0,286047022.6,N
1500684455.8,286047022.9,N
1500684475.6,286047022.2,N
1500684495.5,286047020.9,N
1500684515.3,286047021.0,N
1500684535.1,286047020.8,N
1500684555.9,286047023.3,N
1500684575.7,286047021.4,N
1500684595.6,286047023.2,N
1500684615.4,286047022.3,N
1500684635.2,286047020.8,N
1500684655.1,286047021.3,N
1500684656.0,286047021.3,N
1500684675.8,286047021.2,N
1500684695.7,286047023.3,N
1500684715.5,286047022.4,N
1500684735.3,286047025.1,N
1500684755.2,286047022.4,N
1500684775.0,286047022.4,N
1500684775.9,286047022.4,N
1500684795.7,286047022.4,N
1500684815.6,286047022.3,N
1500684835.4,286047022.2,N
1500684855.3,286047022.4,N
1500684875.1,286047024.8,N
1500684895.8,286047025.0,N
1500684915.7,286047025.2,N
1500684935.5,286047022.6,N
1500684955.4,286047022.4,N
1500684975.2,286047022.8,N
1500684995.0,286047022.7,N
1500684995.9,286047022.7,N
1500685015.8,286047022.6,N
1500685035.6,286047022.4,N
1500685055.4,286047022.5,N
1500685075.3,286047022.5,N
1500685095.1,286047022.7,N
1500685115.9,286047024.7,N
1500685135.7,286047024.1,N
1500685155.5,286047023.3,N
1500685175.4,286047022.6,N
1500685195.2,286047022.8,N
